EW2997 Weather Reports


time (UTC)temp
F
wind
direction
speed
knots
gust
knots
rain 1hr
in
rain 24hr
in
rain mn
in
humidity
%
barometer
mb
20260904112355 66 150 0.0 0.0 0.00 0.00 0.00 97 1019.0
20260904105353 66 149 0.0 0.0 0.00 0.00 0.00 97 1018.7
20260904102349 67 150 0.0 0.0 0.00 0.00 0.00 97 1018.4
20260904095345 67 150 0.0 0.0 0.00 0.00 0.00 97 1018.4
20260904092341 68 221 0.0 0.0 0.00 0.00 0.00 96 1018.7
20260904085337 68 155 0.9 0.9 0.00 0.00 0.00 96 1018.4
20260904082332 68 132 0.0 0.0 0.00 0.00 0.00 96 1018.4
20260904075329 68 132 0.0 0.0 0.00 0.00 0.00 96 1018.4
20260904072326 67 132 0.0 0.0 0.00 0.00 0.00 96 1017.7
20260904065326 67 181 0.0 0.0 0.00 0.00 0.00 96 1017.4
20260904062322 67 180 0.9 0.9 0.00 0.00 0.00 96 1017.7
20260904055319 67 224 0.0 0.0 0.00 0.00 0.00 95 1017.7
20260904052315 68 185 1.7 1.7 0.00 0.00 0.00 94 1018.7
20260904045311 67 192 0.0 0.0 0.00 0.00 0.00 96 1018.7
20260904042308 68 148 0.0 0.0 0.00 0.00 0.00 96 1018.7
20260904035306 68 246 1.7 1.7 0.04 0.66 0.66 95 1018.7
20260904032306 68 76 0.9 0.9 0.03 0.64 0.64 95 1019.5
20260904025300 69 96 1.7 1.7 0.11 0.59 0.59 94 1021.2
20260904022256 69 114 1.7 1.7 0.04 0.53 0.53 95 1020.8
20260904015254 70 186 0.0 0.0 0.04 0.48 0.48 94 1019.5
20260904012252 71 253 2.6 2.6 0.03 0.47 0.47 88 1019.0
20260904005252 74 4 3.5 3.5 0.01 0.39 0.39 83 1019.5
20260904002250 77 187 0.0 0.0 0.00 0.37 0.37 92 1018.4
20260903235247 77 216 1.7 1.7 0.00 0.37 0.37 91 1018.4
20260903232246 79 216 0.0 0.0 0.00 0.37 0.37 91 1018.4
20260903225246 80 216 0.0 0.0 0.00 0.37 0.37 88 1017.7
20260903222243 83 216 0.0 0.0 0.00 0.37 0.37 75 1018.0
20260903215243 85 226 2.6 2.6 0.00 0.37 0.37 69 1017.4
20260903212238 86 254 1.7 1.7 0.00 0.37 0.37 67 1017.7
20260903205235 85 234 1.7 1.7 0.00 0.37 0.37 67 1017.4
20260903202231 85 204 2.6 3.5 0.00 0.37 0.37 71 1018.0
20260903195228 83 210 1.7 1.7 0.00 0.37 0.37 73 1018.4
20260903192228 83 243 4.3 5.2 0.00 0.37 0.37 74 1018.7
20260903185227 81 192 0.9 0.9 0.00 0.37 0.37 71 1019.5
20260903182226 79 168 2.6 3.5 0.00 0.37 0.37 78 1020.2
20260903175225 76 240 1.7 1.7 0.00 0.37 0.37 86 1020.2
20260903172224 74 216 3.5 3.5 0.00 0.37 0.37 88 1020.5
20260903165220 74 235 4.3 4.3 0.00 0.37 0.37 87 1020.8
20260903162216 71 175 0.0 0.0 0.00 0.37 0.37 94 1021.5
20260903155213 71 206 0.0 0.0 0.01 0.37 0.37 94 1021.9
20260903152211 70 192 0.0 0.0 0.00 0.36 0.36 94 1022.5
20260903145209 69 216 1.7 1.7 0.18 0.36 0.36 95 1022.2
20260903142204 68 176 1.7 1.7 0.17 0.34 0.34 95 1021.5
20260903135159 70 312 0.9 0.9 0.00 0.03 0.03 91 1022.9
20260903132154 71 263 1.7 1.7 0.00 0.03 0.03 93 1021.9
20260903125149 71 195 1.7 1.7 0.00 0.03 0.03 93 1022.2
20260903122148 69 214 0.0 0.0 0.00 0.03 0.03 94 1021.5
20260903115142 68 186 1.7 1.7 0.03 0.03 0.03 95 1021.9